• Join FlightAware (Why Join?)
  • Login
  • US Flag 
02:29PM EST


 

Airport Tracker/Info


-or-


 

Live Flight TrackerFlight Track Log ✈ BVN8580 ✈ 10-May-2012 ✈ KOMA - KGRI

Flight Track Log - Related Links

Times and Time Zones

All times are in EDT time to prevent confusion due to time zone crossing. See the BVN8580 flight status page for this flight to view local times or setup timezone preferences in your user account.

Time Position Orientation Groundspeed Altitude Reporting Facility
EDT Latitude Longitude Course Direction KTS MPH feet Rate Location/Type
08:06AM 41.2953 -95.8992 249° West 86 99 1,500  Level Minneapolis Center
08:11AM 41.2431 -96.0764 260° West 97 112 5,500 746 Climbing Minneapolis Center
08:12AM 41.2381 -96.1147 255° West 98 113 6,400 750 Climbing Minneapolis Center
08:13AM 41.2308 -96.1503 268° West 100 115 7,100 694 Climbing Minneapolis Center
08:14AM 41.2300 -96.1889 259° West 108 124 7,800 446 Climbing Minneapolis Center
08:15AM 41.2225 -96.2408 262° West 131 151 8,000 99 Climbing Minneapolis Center
08:16AM 41.2169 -96.2903 257° West 141 162 8,000  Level Minneapolis Center
08:17AM 41.2094 -96.3339 265° West 138 159 8,000  Level Minneapolis Center
08:18AM 41.2061 -96.3806 256° West 137 158 8,000  Level Minneapolis Center
08:19AM 41.1964 -96.4325 261° West 135 155 8,000  Level Minneapolis Center
08:20AM 41.1911 -96.4792 258° West 132 152 8,000  Level Minneapolis Center
08:21AM 41.1833 -96.5283 262° West 133 153 8,000  Level Minneapolis Center
08:22AM 41.1778 -96.5831 255° West 133 153 8,000  Level Minneapolis Center
08:23AM 41.1681 -96.6322 264° West 133 153 8,000  Level Minneapolis Center
08:24AM 41.1644 -96.6814 262° West 134 154 8,000  Level Minneapolis Center
08:25AM 41.1586 -96.7333 255° West 135 155 8,000  Level Minneapolis Center
08:27AM 41.1489 -96.7825 264° West 135 155 8,000  Level Minneapolis Center
08:28AM 41.1453 -96.8319 257° West 136 157 8,000  Level Minneapolis Center
08:29AM 41.1375 -96.8783 262° West 135 155 8,000  Level Minneapolis Center
08:30AM 41.1317 -96.9303 259° West 133 153 8,000  Level Minneapolis Center
08:31AM 41.1239 -96.9847 261° West 134 154 8,000  Level Minneapolis Center
08:32AM 41.1181 -97.0339 257° West 134 154 8,000  Level Minneapolis Center
08:33AM 41.1103 -97.0803 304° West 134 154 8,000  Level Minneapolis Center
08:33AM 41.1219 -97.1031 261° West 136 157 8,000  Level Minneapolis Center
08:34AM 41.1161 -97.1522 261° West 136 157 8,000  Level Minneapolis Center
08:35AM 41.1103 -97.2014 264° West 128 147 8,000  Level Minneapolis Center
08:36AM 41.1067 -97.2478 258° West 133 153 8,000  Level Minneapolis Center
08:37AM 41.0986 -97.2969 261° West 133 153 8,000 50 Level Minneapolis Center
08:38AM 41.0928 -97.3433 270° West 138 159 8,100 50 Climbing Minneapolis Center
08:39AM 41.0931 -97.3928 257° West 138 159 8,100  Level Minneapolis Center
08:40AM 41.0853 -97.4392 261° West 138 159 8,100  Level Minneapolis Center
08:41AM 41.0792 -97.4883 257° West 138 159 8,100  Level Minneapolis Center
08:42AM 41.0714 -97.5344 264° West 138 159 8,100  Level Minneapolis Center
08:43AM 41.0672 -97.5864 261° West 143 165 8,100  Level Minneapolis Center
08:44AM 41.0611 -97.6356 255° West 143 165 8,100  Level Minneapolis Center
08:45AM 41.0508 -97.6872 257° West 143 165 8,100 -50 Level Minneapolis Center
08:46AM 41.0428 -97.7333 264° West 143 165 8,000 -50 Descending Minneapolis Center
08:47AM 41.0386 -97.7881 261° West 143 165 8,000  Level Minneapolis Center
08:48AM 41.0322 -97.8397 261° West 143 165 8,000 -149 Level Minneapolis Center
08:49AM 41.0261 -97.8917 259° West 143 165 7,700 -454 Descending Minneapolis Center
08:50AM 41.0172 -97.9514 264° West 154 177 7,100 -605 Descending Minneapolis Center
08:51AM 41.0128 -98.0086 259° West 160 184 6,500 -650 Descending Minneapolis Center
08:52AM 41.0042 -98.0686 261° West 160 184 5,800 -700 Descending Minneapolis Center
08:53AM 40.9975 -98.1258 273° West 160 184 5,100 -694 Descending Minneapolis Center
08:54AM 40.9994 -98.1753 273° West 154 177 4,400 -750 Descending Minneapolis Center
08:55AM 41.0014 -98.2250 267° West 149 171 3,600 -857 Descending Minneapolis Center
08:56AM 40.9992 -98.2769 259° West 143 165 2,700 -650 Descending Minneapolis Center
08:57AM 40.9933 -98.3178 221° Southwest 136 157 2,300 -350 Descending Minneapolis Center
08:58AM 40.9733 -98.3408 221° Southwest 130 150 2,000 -300 Descending Minneapolis Center